Regional Weather Roundup
Issued by NWS

Home | Current Version | Previous Version | Text Only | Print | Product List | Glossary Off
Versions: 1 2 3 4 5 6 7 8 9 10 11 12 13 14 15 16 17 18 19 20 21 22 23 24 25 26 27 28 29 30 31 32 33 34 35 36 37 38 39 40 41 42 43 44 45 46 47 48 49 50

947
ASUS45 KABQ 191210
RWRNM
NEW MEXICO REGIONAL WEATHER ROUNDUP
NATIONAL WEATHER SERVICE ALBUQUERQUE NM
500 AM MST SUN FEB 19 2017

NOTE: "FAIR" MEANS FEW OR NO CLOUDS BELOW 12,000 FEET AGL WITH NO
       SIGNIFICANT WEATHER OR OBSTRUCTIONS TO VISION.

      THIS PRODUCT IS RELEASED AS TWO VERSIONS.  ONE VERSION NEAR
      THE TOP OF THE HOUR CONTAINING PRELIMINARY DATA FROM ALBUQUERQUE
      AND OTHER STATIONS.  A FINAL VERSION WITH ADDITIONAL DATA IS
      ISSUED ABOUT 10 MINUTES AFTER THE HOUR.

NMZ501-503-504-510>518-191300-
NORTHWEST PLATEAU/NORTHCENTRAL MOUNTAINS

CITY           SKY/WX    TMP DP  RH WIND       PRES   REMARKS
FARMINGTON     CLOUDY    45  31  58 S7        29.76R
6HR MIN TEMP:  43; 6HR MAX TEMP:  47;

LOS ALAMOS     CLOUDY    40  26  55 S9        29.83F WCI  35
SANTA FE       CLOUDY    39  28  64 SW13      29.82R WCI  31
6HR MIN TEMP:  33; 6HR MAX TEMP:  40;

TAOS             N/A     34  21  60 CALM      29.83S
ANGEL FIRE     FAIR      28  25  89 CALM      29.87S

$$
NMZ402-403-502-505>509-191300-
WESTCENTRAL MOUNTAINS/SOUTHWEST MOUNTAINS

CITY           SKY/WX    TMP DP  RH WIND       PRES   REMARKS
GALLUP         FLURRIES  34  32  92 SW14      29.81R WCI  25
6HR MIN TEMP:  34; 6HR MAX TEMP:  43; 6HR PCP:  0.01;

GRANTS         CLOUDY    36  34  92 SE7       29.82S WCI  31
SILVER CITY    CLOUDY    34  32  94 CALM      29.87S

$$
NMZ407-409-411-412-191300-
SOUTHERN DESERTS

CITY           SKY/WX    TMP DP  RH WIND       PRES   REMARKS
DEMING         CLOUDY    41  34  76 W12       29.88R
6HR MIN TEMP:  41; 6HR MAX TEMP:  46; 6HR PCP: TRACE;

LAS CRUCES     MOCLDY    42  36  78 W7        29.88R
HOLLOMAN AFB   CLOUDY    44  40  86 CALM      29.87F
ALAMOGORDO     MOCLDY    46  37  71 N7G16     29.83F
T OR C         FAIR      41  38  89 SE8       29.81S
6HR MIN TEMP:  41; 6HR MAX TEMP:  48; 6HR PCP:  0.02;


$$
NMZ519>523-191300-
CENTRAL VALLEYS/CENTRAL HIGHLANDS

CITY           SKY/WX    TMP DP  RH WIND       PRES   REMARKS
ALBUQUERQUE    LGT RAIN  41  38  89 SE9       29.86R
6HR MIN TEMP:  40; 6HR MAX TEMP:  46; 6HR PCP:  0.02;

DOUBLE EAGLE   RAIN      38  37  95 SE7       29.85S WCI  32
MORIARTY ARPT  CLOUDY    37  32  82 S6        29.86S WCI  33
6HR MIN TEMP:  26; 6HR MAX TEMP:  37;

CLINES CORNERS CLOUDY    34  31  88 SW18G30   29.85S WCI  23
6HR MIN TEMP:  33; 6HR MAX TEMP:  42;

BELEN          RAIN      41  39  93 S13       29.86R
6HR MIN TEMP:  36; 6HR MAX TEMP:  44;

SOCORRO        CLOUDY    40  39  97 S6        29.84F
6HR MIN TEMP:  38; 6HR MAX TEMP:  42; 6HR PCP:  0.03;


$$
NMZ524>526-539-540-191300-
SOUTHCENTRAL MOUNTAINS

CITY           SKY/WX    TMP DP  RH WIND       PRES   REMARKS
RUIDOSO        FAIR      32  28  86 CALM      29.86R

$$
NMZ527>531-191300-
NORTHEAST HIGHLANDS/NORTHEAST PLAINS

CITY           SKY/WX    TMP DP  RH WIND       PRES   REMARKS
LAS VEGAS      CLOUDY    35  29  78 E6        29.83R WCI  30
6HR MIN TEMP:  29; 6HR MAX TEMP:  40;

RATON          FAIR      36  28  73 NW5       29.82F WCI  32
6HR MIN TEMP:  32; 6HR MAX TEMP:  42;

CLAYTON        FAIR      43  35  73 SW9       29.81R
6HR MIN TEMP:  43; 6HR MAX TEMP:  47;


$$
NMZ532>537-191300-
EASTCENTRAL PLAINS

CITY           SKY/WX    TMP DP  RH WIND       PRES   REMARKS
TUCUMCARI      FAIR      44  38  79 E8        29.77F
6HR MIN TEMP:  40; 6HR MAX TEMP:  55;

CANNON AFB     FAIR      41  41 100 E7        29.80R
6HR MIN TEMP:  41; 6HR MAX TEMP:  49;

CLOVIS AIRPORT FAIR      37  34  87 NW5       29.81R WCI  34

$$
NMZ028-029-538-191300-
SOUTHEAST PLAINS

CITY           SKY/WX    TMP DP  RH WIND       PRES   REMARKS
ROSWELL        FAIR      44  32  62 NW6         N/A
6HR MIN TEMP:  41; 6HR MAX TEMP:  48;

ARTESIA        MOCLDY    52  36  54 W7        29.80R
CARLSBAD       FAIR      52  35  52 W14G25    29.78R
6HR MIN TEMP:  50; 6HR MAX TEMP:  58;

HOBBS          FAIR      50  32  50 W9        29.81R


$$




USA.gov is the U.S. government's official web portal to all federal, state and local government web resources and services.